Mt. Pocono, PA

1:08 PM EDT on June 28, 2017 (GMT -0400)
Pocono Mountains Municipal

Weather History for KMPO - May, 2013

Change the Weather History Date:

Saturday, May 4, 2013

  Actual Average Record
Temperature  
Mean Temperature 52 °F 52 °F  
Max Temperature 68 °F 62 °F 84 °F (1944)
Min Temperature 35 °F 42 °F 20 °F (1917)
Degree Days  
Heating Degree Days 13 13  
Month to date heating degree days 52 55  
Since 1 July heating degree days 6497 6749  
Cooling Degree Days 0 0  
Month to date cooling degree days 0 0  
Year to date cooling degree days 1 4  
Moisture  
Dew Point 36 °F    
Average Humidity 61    
Maximum Humidity 89    
Minimum Humidity 32    
Precipitation  
Precipitation 0.00 in 0.12 in 1.47 in (1984)
Month to date precipitation 0.00 0.45  
Year to date precipitation 9.49 13.56  
Sea Level Pressure  
Sea Level Pressure 30.28 in    
Wind  
Wind Speed 6 mph (ESE)    
Max Wind Speed 16 mph    
Max Gust Speed 22 mph    
Visibility 10 miles    
Events      
T = Trace of Precipitation, MM = Missing Value Source: NWS Daily Summary

Daily Weather History Graph

Daily Weather History Graph

Search for Another Location

Airport or City:

Trip Planner

Search our weather history database for the weather conditions in past years. The results will help you decide how hot, cold, wet, or windy it might be!

Date:

Astronomy

May. 04, 2013 Rise Set
Actual Time 5:55 AM EDT 8:01 PM EDT
Civil Twilight 5:24 AM EDT 8:32 PM EDT
Nautical Twilight 4:47 AM EDT 9:09 PM EDT
Astronomical Twilight 4:07 AM EDT 9:50 PM EDT
Moon 2:55 AM EDT (5/4) 2:54 PM EDT (5/4)
Length of Visible Light 15h 07m
Length of Day
14h 06m
Waning Crescent, 27% of the Moon is Illuminated
May 4
Waning Crescent
May 9
New
May 18
First Quarter
May 25
Full
May 31
Last Quarter

Hourly Weather History & Observations

Time (EDT) Temp. Windchill Dew Point Humidity Pressure Visibility Wind Dir Wind Speed Gust Speed Precip Events Conditions
12:53 AM 39.0 °F - 33.1 °F 79% 30.36 in 10.0 mi Calm Calm - N/A   Clear
1:53 AM 37.9 °F - 33.1 °F 83% 30.34 in 10.0 mi Calm Calm - N/A   Clear
2:53 AM 37.0 °F - 33.1 °F 86% 30.32 in 10.0 mi Calm Calm - N/A   Clear
3:53 AM 35.1 °F - 32.0 °F 89% 30.31 in 10.0 mi Calm Calm - N/A   Clear
4:53 AM 37.0 °F - 33.1 °F 86% 30.30 in 10.0 mi Calm Calm - N/A   Clear
5:53 AM 37.0 °F 34.5 °F 33.1 °F 86% 30.31 in 10.0 mi NE 3.5 mph - N/A   Clear
6:53 AM 46.0 °F 43.9 °F 37.9 °F 73% 30.31 in 10.0 mi ENE 4.6 mph - N/A   Clear
7:53 AM 51.1 °F - 37.0 °F 59% 30.32 in 10.0 mi ENE 8.1 mph - N/A   Clear
8:31 AM 53.6 °F - 35.6 °F 51% 30.30 in 10.0 mi ESE 10.4 mph - N/A   Partly Cloudy
8:53 AM 54.0 °F - 35.1 °F 49% 30.32 in 10.0 mi East 9.2 mph - N/A   Clear
9:53 AM 57.0 °F - 34.0 °F 42% 30.32 in 10.0 mi ESE 8.1 mph - N/A   Clear
10:53 AM 59.0 °F - 33.1 °F 38% 30.32 in 10.0 mi ESE 6.9 mph 19.6 mph N/A   Clear
11:53 AM 61.0 °F - 35.1 °F 38% 30.30 in 10.0 mi SE 8.1 mph - N/A   Clear
12:53 PM 64.0 °F - 37.9 °F 38% 30.29 in 10.0 mi SE 9.2 mph 16.1 mph N/A   Clear
1:53 PM 64.0 °F - 37.0 °F 37% 30.27 in 10.0 mi Variable 5.8 mph - N/A   Clear
2:53 PM 66.0 °F - 36.0 °F 33% 30.25 in 10.0 mi ESE 8.1 mph 16.1 mph N/A   Clear
3:53 PM 66.9 °F - 36.0 °F 32% 30.24 in 10.0 mi North 5.8 mph - N/A   Clear
4:53 PM 66.9 °F - 35.1 °F 31% 30.22 in 10.0 mi Variable 5.8 mph 16.1 mph N/A   Clear
5:53 PM 66.9 °F - 35.1 °F 31% 30.21 in 10.0 mi SSE 9.2 mph - N/A   Clear
6:53 PM 64.9 °F - 36.0 °F 34% 30.20 in 10.0 mi SSE 11.5 mph - N/A   Clear
7:53 PM 60.1 °F - 36.0 °F 41% 30.21 in 10.0 mi SSE 5.8 mph - N/A   Clear
8:53 PM 55.9 °F - 39.0 °F 53% 30.23 in 10.0 mi SE 10.4 mph - N/A   Clear
9:53 PM 53.1 °F - 39.0 °F 59% 30.25 in 10.0 mi ESE 3.5 mph - N/A   Clear
10:53 PM 48.9 °F - 39.0 °F 69% 30.26 in 10.0 mi SE 8.1 mph - N/A   Clear
11:53 PM 46.0 °F 43.9 °F 39.0 °F 76% 30.26 in 10.0 mi ESE 4.6 mph - N/A   Clear